GW2584 Weather Reports


Display with metric or nautical units.
time (UTC)temp
F
wind
direction
speed
MPH
gust
MPH
rain 1hr
in
rain 24hr
in
rain mn
in
humidity
%
barometer
mb
20260509041556 51 0 0.0 3.0 0.00 0.00 0.00 58 1017.1
20260509040108 52 265 1.0 2.0 0.00 0.00 0.00 56 1017.4
20260509034555 53 239 2.0 5.0 0.00 0.00 0.00 55 1017.4
20260509033128 55 0 0.0 5.0 0.00 0.00 0.00 51 1017.5
20260509031555 54 205 1.0 4.0 0.00 0.00 0.00 51 1017.6
20260509030059 54 186 3.0 5.0 0.00 0.00 0.00 51 1017.5
20260509024606 54 202 1.0 3.0 0.00 0.00 0.00 51 1017.4
20260509023054 54 203 2.0 4.0 0.00 0.00 0.00 52 1017.3
20260509021557 54 0 0.0 1.0 0.00 0.00 0.00 51 1017.2
20260509020110 55 0 0.0 1.0 0.00 0.00 0.00 50 1017.1
20260509014557 56 224 0.0 1.0 0.00 0.00 0.00 49 1016.9
20260509013100 57 0 1.0 4.0 0.00 0.00 0.00 48 1016.9
20260509011604 57 123 1.0 6.0 0.00 0.00 0.00 47 1016.8
20260509010100 57 109 1.0 5.0 0.00 0.00 0.00 47 1016.7
20260509004555 58 86 2.0 9.0 0.00 0.00 0.00 46 1016.5
20260509003059 59 48 3.0 6.0 0.00 0.00 0.00 45 1016.6
20260509001556 59 45 0.0 8.0 0.00 0.00 0.00 45 1016.6
20260509000055 59 58 2.0 9.0 0.00 0.00 0.00 45 1016.6
20260508234603 60 0 0.0 7.0 0.00 0.00 0.00 44 1016.6
20260508233104 60 330 2.0 8.0 0.00 0.00 0.00 44 1016.4
20260508231600 61 55 2.0 6.0 0.00 0.00 0.00 44 1016.5
20260508230057 61 34 2.0 5.0 0.00 0.00 0.00 43 1016.6
20260508224556 61 92 5.0 12.0 0.00 0.00 0.00 43 1016.5
20260508223055 61 4 1.0 7.0 0.00 0.00 0.00 44 1016.5
20260508221558 60 284 4.0 9.0 0.00 0.00 0.00 45 1016.6
20260508220056 60 0 3.0 11.0 0.00 0.00 0.00 45 1016.7
20260508214556 60 35 3.0 12.0 0.00 0.00 0.00 46 1016.8
20260508213058 60 295 2.0 11.0 0.00 0.00 0.00 45 1016.9
20260508211557 60 112 4.0 15.0 0.00 0.00 0.00 45 1016.9
20260508210100 60 32 4.0 10.0 0.00 0.00 0.00 48 1017.1
20260508204558 60 96 5.0 9.0 0.00 0.00 0.00 49 1017.1
20260508203101 60 16 4.0 11.0 0.00 0.00 0.00 48 1017.2
20260508201558 59 4 6.0 12.0 0.00 0.00 0.00 50 1017.2
20260508200113 58 51 7.0 14.0 0.00 0.00 0.00 50 1017.4
20260508194607 58 43 4.0 14.0 0.00 0.00 0.00 52 1017.6
20260508193119 58 104 4.0 10.0 0.00 0.00 0.00 50 1017.6
20260508191607 57 22 4.0 10.0 0.00 0.00 0.00 52 1017.7
20260508190114 55 2 4.0 13.0 0.00 0.00 0.00 54 1017.8
20260508184601 56 93 3.0 9.0 0.00 0.00 0.00 54 1018.0
20260508183100 56 15 5.0 12.0 0.00 0.00 0.00 53 1018.1
20260508181603 55 99 4.0 9.0 0.00 0.00 0.00 57 1018.2
20260508180106 55 18 2.0 11.0 0.00 0.00 0.00 54 1018.5
20260508174556 54 67 4.0 9.0 0.00 0.00 0.00 56 1018.5
20260508173056 53 344 2.0 9.0 0.00 0.00 0.00 56 1018.6
20260508171557 54 113 2.0 9.0 0.00 0.00 0.00 58 1018.6
20260508170100 55 153 2.0 9.0 0.00 0.00 0.00 58 1018.6
20260508164554 54 14 4.0 8.0 0.00 0.03 0.00 59 1018.6
20260508163106 54 39 3.0 8.0 0.00 0.03 0.00 57 1018.4
20260508161559 54 31 2.0 8.0 0.00 0.03 0.00 55 1018.4
20260508160056 54 224 1.0 9.0 0.00 0.03 0.00 52 1018.3
20260508154559 54 6 1.0 8.0 0.00 0.11 0.00 60 1018.4
20260508153107 54 12 3.0 7.0 0.00 0.11 0.00 56 1018.3
20260508151557 57 13 2.0 7.0 0.00 0.11 0.00 40 1018.1
20260508150056 56 34 1.0 4.0 0.00 0.11 0.00 47 1018.1
20260508144557 53 154 0.0 2.0 0.00 0.27 0.00 55 1018.1
20260508143116 50 187 1.0 3.0 0.00 0.27 0.00 62 1018.5
20260508141605 49 267 1.0 3.0 0.00 0.27 0.00 65 1018.7
20260508140115 49 0 0.0 1.0 0.00 0.27 0.00 67 1018.7
20260508134556 48 271 1.0 4.0 0.00 0.27 0.00 69 1018.9
20260508133102 47 273 0.0 3.0 0.00 0.27 0.00 71 1018.8
20260508131556 46 0 0.0 5.0 0.00 0.27 0.00 74 1018.9
20260508130057 43 214 1.0 8.0 0.00 0.27 0.00 83 1019.0
20260508124558 41 181 0.0 2.0 0.00 0.27 0.00 88 1019.2
20260508123054 39 0 0.0 1.0 0.00 0.27 0.00 87 1019.2
20260508121554 39 0 0.0 0.0 0.00 0.27 0.00 85 1019.2
20260508120112 39 0 0.0 1.0 0.00 0.27 0.00 85 1018.5
20260508114602 39 0 0.0 3.0 0.00 0.27 0.00 86 1017.8
20260508113109 38 0 0.0 2.0 0.00 0.27 0.00 86 1017.6
20260508111553 40 0 0.0 1.0 0.00 0.27 0.00 85 1017.6
20260508110103 39 0 0.0 0.0 0.00 0.27 0.00 84 1017.9
20260508104557 39 0 0.0 1.0 0.00 0.27 0.00 82 1017.8
20260508103100 42 117 0.0 3.0 0.00 0.27 0.00 72 1017.4
20260508101602 43 250 1.0 7.0 0.00 0.27 0.00 71 1016.7
20260508100129 40 240 1.0 3.0 0.00 0.27 0.00 81 1016.7
20260508094556 41 0 0.0 3.0 0.00 0.27 0.00 81 1016.5
20260508093056 41 235 1.0 7.0 0.00 0.27 0.00 82 1016.8
20260508091610 40 0 0.0 0.0 0.00 0.27 0.00 83 1016.5
20260508090056 41 248 0.0 1.0 0.00 0.27 0.00 83 1016.8
20260508084556 41 0 0.0 0.0 0.00 0.27 0.00 81 1017.0
20260508083056 41 0 0.0 2.0 0.00 0.27 0.00 80 1017.3
20260508081612 41 0 0.0 0.0 0.00 0.27 0.00 79 1017.4
20260508080100 42 0 0.0 1.0 0.00 0.27 0.00 77 1017.6
20260508074559 43 0 0.0 2.0 0.00 0.27 0.00 75 1017.7
20260508073106 42 0 0.0 1.0 0.00 0.27 0.00 75 1018.2
20260508071557 42 0 0.0 1.0 0.00 0.27 0.00 74 1017.8
20260508070056 43 0 1.0 3.0 0.00 0.27 0.00 72 1017.6
20260508064556 43 237 2.0 5.0 0.00 0.27 0.00 73 1017.4
20260508063101 42 0 0.0 1.0 0.00 0.27 0.00 74 1017.4
20260508061559 43 0 0.0 1.0 0.00 0.27 0.00 73 1017.6
20260508060111 45 0 2.0 6.0 0.00 0.27 0.00 68 1017.4
20260508054639 44 208 2.0 4.0 0.00 0.27 0.27 75 1017.5
20260508053055 44 212 2.0 5.0 0.00 0.27 0.27 76 1017.9
20260508051557 45 0 0.0 4.0 0.00 0.27 0.27 68 1018.4
20260508050059 46 0 0.0 4.0 0.00 0.27 0.27 67 1017.7
20260508044554 46 0 0.0 3.0 0.00 0.27 0.27 66 1017.6
20260508043059 46 29 0.0 6.0 0.00 0.27 0.27 63 1017.4